When you browse on this site, cookies collect data to enhance your experience and personalize the content and advertising you see.
Visit our Privacy Policy to learn more. By continuing to use the site, you agree to this use of cookies and data.
  • In Latvia
  • List of Countries
  • For 7 days
  • Water Temperature
  • Weather Map
  • Weather Widgets
  • user-avatar
    Login

    Hourly Weather Nakhchivan

    Today, 3 June, Wednesday

    Time Temperature Precipitation Wind Pressure Humidity
    00:00 +23°C° 0 mm 0 mps 683 mmHg 40%
    01:00 +24°C° 0 mm 1 mps 683 mmHg 42%
    02:00 +24°C° 0 mm 1 mps 683 mmHg 45%
    03:00 +23°C° 0 mm 2 mps 683 mmHg 45%
    04:00 +24°C° 0 mm 1 mps 683 mmHg 44%
    05:00 +24°C° 0 mm 1 mps 683 mmHg 42%
    06:00 +23°C° 0 mm 0 mps 684 mmHg 41%
    07:00 +26°C° 0 mm 1 mps 684 mmHg 37%
    08:00 +27°C° 0 mm 1 mps 684 mmHg 33%
    09:00 +29°C° 0 mm 1 mps 684 mmHg 28%
    10:00 +30°C° 0 mm 3 mps 684 mmHg 26%
    11:00 +32°C° 0 mm 5 mps 684 mmHg 25%
    12:00 +32°C° 0 mm 7 mps 685 mmHg 23%
    13:00 +32°C° 0.1 mm 7 mps 684 mmHg 27%
    14:00 +30°C° 0.1 mm 7 mps 684 mmHg 30%
    15:00 +29°C° 0 mm 6 mps 684 mmHg 32%
    16:00 +29°C° 0.1 mm 5 mps 684 mmHg 33%
    17:00 +28°C° 0.1 mm 3 mps 684 mmHg 35%
    18:00 +28°C° 0.1 mm 2 mps 684 mmHg 36%
    19:00 +27°C° 0 mm 1 mps 684 mmHg 38%
    20:00 +26°C° 0 mm 1 mps 684 mmHg 40%
    21:00 +25°C° 0 mm 1 mps 684 mmHg 41%
    22:00 +25°C° 0 mm 1 mps 684 mmHg 42%
    23:00 +24°C° 0 mm 1 mps 684 mmHg 44%

    Tomorrow, 4 June, Thursday

    Time Temperature Precipitation Wind Pressure Humidity
    00:00 +21°C° 0 mm 0 mps 684 mmHg 45%
    01:00 +23°C° 0 mm 1 mps 684 mmHg 47%
    02:00 +22°C° 0 mm 1 mps 684 mmHg 49%
    03:00 +21°C° 0 mm 1 mps 684 mmHg 51%
    04:00 +22°C° 0 mm 1 mps 685 mmHg 50%
    05:00 +22°C° 0 mm 1 mps 685 mmHg 50%
    06:00 +23°C° 0 mm 1 mps 685 mmHg 49%
    07:00 +24°C° 0 mm 1 mps 686 mmHg 44%
    08:00 +26°C° 0 mm 1 mps 686 mmHg 40%
    09:00 +27°C° 0 mm 1 mps 686 mmHg 35%
    10:00 +29°C° 0 mm 1 mps 686 mmHg 30%
    11:00 +30°C° 0 mm 1 mps 686 mmHg 26%
    12:00 +32°C° 0 mm 2 mps 686 mmHg 21%
    13:00 +34°C° 0 mm 3 mps 686 mmHg 18%
    14:00 +35°C° 0 mm 4 mps 686 mmHg 15%
    15:00 +36°C° 0 mm 5 mps 686 mmHg 12%
    16:00 +35°C° 0 mm 5 mps 686 mmHg 13%
    17:00 +35°C° 0 mm 5 mps 686 mmHg 14%
    18:00 +35°C° 0 mm 4 mps 687 mmHg 14%
    19:00 +33°C° 0 mm 4 mps 687 mmHg 18%
    20:00 +29°C° 0 mm 4 mps 687 mmHg 23%
    21:00 +27°C° 0 mm 4 mps 687 mmHg 27%
    22:00 +26°C° 0 mm 4 mps 687 mmHg 28%
    23:00 +25°C° 0 mm 4 mps 687 mmHg 30%

    Day after tomorrow, 5 June, Friday

    Time Temperature Precipitation Wind Pressure Humidity
    00:00 +24°C° 0 mm 3 mps 688 mmHg 31%
    01:00 +24°C° 0 mm 3 mps 688 mmHg 33%
    02:00 +22°C° 0 mm 3 mps 688 mmHg 34%
    03:00 +21°C° 0 mm 3 mps 688 mmHg 35%
    04:00 +23°C° 0 mm 2 mps 688 mmHg 34%
    05:00 +23°C° 0 mm 2 mps 688 mmHg 34%
    06:00 +23°C° 0 mm 2 mps 689 mmHg 33%
    07:00 +24°C° 0 mm 2 mps 689 mmHg 31%
    08:00 +26°C° 0 mm 2 mps 689 mmHg 28%
    09:00 +27°C° 0 mm 2 mps 689 mmHg 25%
    10:00 +28°C° 0 mm 2 mps 689 mmHg 23%
    11:00 +29°C° 0 mm 2 mps 689 mmHg 21%
    12:00 +30°C° 0 mm 2 mps 689 mmHg 19%
    13:00 +31°C° 0 mm 1 mps 688 mmHg 18%
    14:00 +31°C° 0 mm 1 mps 688 mmHg 17%
    15:00 +32°C° 0 mm 1 mps 688 mmHg 16%
    16:00 +33°C° 0 mm 3 mps 688 mmHg 17%
    17:00 +32°C° 0 mm 4 mps 688 mmHg 18%
    18:00 +32°C° 0 mm 6 mps 688 mmHg 18%
    19:00 +30°C° 0 mm 5 mps 689 mmHg 22%
    20:00 +28°C° 0 mm 4 mps 689 mmHg 25%
    21:00 +27°C° 0 mm 2 mps 690 mmHg 28%
    22:00 +26°C° 0 mm 2 mps 690 mmHg 31%
    23:00 +25°C° 0 mm 2 mps 690 mmHg 33%

    6 June, Saturday

    Time Temperature Precipitation Wind Pressure Humidity
    00:00 +25°C° 0 mm 2 mps 690 mmHg 35%
    01:00 +24°C° 0 mm 2 mps 690 mmHg 39%
    02:00 +23°C° 0 mm 1 mps 689 mmHg 42%
    03:00 +22°C° 0 mm 1 mps 689 mmHg 46%
    04:00 +22°C° 0 mm 1 mps 689 mmHg 46%
    05:00 +22°C° 0 mm 1 mps 689 mmHg 46%
    06:00 +22°C° 0 mm 1 mps 690 mmHg 46%
    07:00 +24°C° 0 mm 1 mps 690 mmHg 43%
    08:00 +25°C° 0 mm 1 mps 690 mmHg 40%
    09:00 +26°C° 0 mm 2 mps 690 mmHg 37%
    10:00 +27°C° 0.2 mm 2 mps 690 mmHg 35%
    11:00 +28°C° 0.2 mm 2 mps 690 mmHg 33%
    12:00 +29°C° 0.2 mm 3 mps 690 mmHg 30%
    13:00 +30°C° 0 mm 3 mps 690 mmHg 28%
    14:00 +30°C° 0 mm 3 mps 689 mmHg 26%
    15:00 +31°C° 0 mm 3 mps 689 mmHg 24%
    16:00 +29°C° 0.7 mm 4 mps 689 mmHg 32%
    17:00 +26°C° 0.7 mm 5 mps 689 mmHg 39%
    18:00 +23°C° 0.7 mm 7 mps 689 mmHg 46%
    19:00 +22°C° 0.6 mm 5 mps 689 mmHg 49%
    20:00 +22°C° 0.6 mm 3 mps 690 mmHg 51%
    21:00 +22°C° 0.6 mm 1 mps 690 mmHg 53%
    22:00 +22°C° 0 mm 1 mps 690 mmHg 54%
    23:00 +22°C° 0 mm 1 mps 690 mmHg 54%

    7 June, Sunday

    Time Temperature Precipitation Wind Pressure Humidity
    00:00 +20°C° 0 mm 0 mps 690 mmHg 55%
    01:00 +22°C° 0 mm 1 mps 690 mmHg 57%
    02:00 +21°C° 0 mm 1 mps 690 mmHg 59%
    03:00 +21°C° 0 mm 1 mps 690 mmHg 61%
    04:00 +21°C° 0 mm 1 mps 690 mmHg 59%
    05:00 +21°C° 0 mm 1 mps 690 mmHg 57%
    06:00 +19°C° 0 mm 0 mps 690 mmHg 55%
    07:00 +23°C° 0 mm 1 mps 690 mmHg 51%
    08:00 +24°C° 0 mm 1 mps 690 mmHg 47%
    09:00 +25°C° 0 mm 1 mps 690 mmHg 42%
    10:00 +26°C° 0 mm 1 mps 690 mmHg 39%
    11:00 +27°C° 0 mm 1 mps 690 mmHg 35%
    12:00 +28°C° 0 mm 1 mps 690 mmHg 32%
    13:00 +29°C° 0 mm 2 mps 690 mmHg 30%
    14:00 +30°C° 0 mm 2 mps 690 mmHg 28%
    15:00 +30°C° 0 mm 2 mps 690 mmHg 26%
    16:00 +30°C° 0.1 mm 3 mps 690 mmHg 28%
    17:00 +29°C° 0.1 mm 4 mps 690 mmHg 31%
    18:00 +28°C° 0.1 mm 5 mps 689 mmHg 34%
    19:00 +27°C° 0 mm 4 mps 690 mmHg 35%
    20:00 +26°C° 0 mm 3 mps 690 mmHg 36%
    21:00 +26°C° 0 mm 2 mps 690 mmHg 38%
    22:00 +25°C° 0 mm 2 mps 690 mmHg 40%
    23:00 +24°C° 0 mm 2 mps 690 mmHg 41%

    8 June, Monday

    Time Temperature Precipitation Wind Pressure Humidity
    00:00 +23°C° 0 mm 2 mps 690 mmHg 43%
    01:00 +21°C° 0 mm 2 mps 690 mmHg 44%
    02:00 +21°C° 0 mm 2 mps 689 mmHg 44%
    03:00 +21°C° 0 mm 1 mps 689 mmHg 45%
    04:00 +22°C° 0 mm 1 mps 689 mmHg 43%
    05:00 +22°C° 0 mm 1 mps 689 mmHg 41%
    06:00 +22°C° 0 mm 1 mps 689 mmHg 39%
    07:00 +24°C° 0 mm 1 mps 689 mmHg 35%
    08:00 +25°C° 0 mm 1 mps 690 mmHg 31%
    09:00 +26°C° 0 mm 1 mps 690 mmHg 26%
    10:00 +28°C° 0 mm 1 mps 690 mmHg 23%
    11:00 +29°C° 0 mm 2 mps 689 mmHg 19%
    12:00 +30°C° 0 mm 2 mps 689 mmHg 16%
    13:00 +31°C° 0 mm 2 mps 689 mmHg 15%
    14:00 +32°C° 0 mm 2 mps 689 mmHg 14%
    15:00 +32°C° 0 mm 2 mps 689 mmHg 13%
    16:00 +33°C° 0 mm 3 mps 689 mmHg 15%
    17:00 +33°C° 0 mm 3 mps 688 mmHg 16%
    18:00 +32°C° 0 mm 4 mps 688 mmHg 18%
    19:00 +30°C° 0 mm 4 mps 688 mmHg 22%
    20:00 +28°C° 0 mm 3 mps 689 mmHg 26%
    21:00 +26°C° 0 mm 3 mps 689 mmHg 31%
    22:00 +25°C° 0 mm 3 mps 688 mmHg 32%
    23:00 +24°C° 0 mm 3 mps 688 mmHg 33%
    Show more